Time,TemperatureF,DewpointF,PressureIn,WindDirection,WindDirectionDegrees,WindSpeedMPH,WindSpeedGustMPH,Humidity,HourlyPrecipIn,Conditions,Clouds,dailyrainin,SoftwareType,DateUTC
2013-03-22 00:04:00,51.0,13.0,-100.00,NW,305,1.0,8.0,22,-99.99,,,-99.99,,2013-03-22 04:04:00,
2013-03-22 00:12:00,50.0,13.0,-100.00,WNW,300,2.0,6.0,22,-99.99,,,-99.99,,2013-03-22 04:12:00,
2013-03-22 00:23:00,50.0,13.0,-100.00,NW,305,1.0,4.0,22,-99.99,,,-99.99,,2013-03-22 04:23:00,
2013-03-22 00:32:00,50.0,12.0,-100.00,NW,305,1.0,5.0,22,-99.99,,,-99.99,,2013-03-22 04:32:00,
2013-03-22 00:43:00,50.0,13.0,-100.00,WNW,300,4.0,7.0,22,-99.99,,,-99.99,,2013-03-22 04:43:00,
2013-03-22 00:52:00,50.0,13.0,-100.00,NW,305,5.0,12.0,22,-99.99,,,-99.99,,2013-03-22 04:52:00,
2013-03-22 01:02:00,50.0,12.0,-100.00,WNW,300,5.0,9.0,22,-99.99,,,-99.99,,2013-03-22 05:02:00,
2013-03-22 01:12:00,49.0,13.0,-100.00,WNW,300,3.0,8.0,23,-99.99,,,-99.99,,2013-03-22 05:12:00,
2013-03-22 01:22:00,47.0,15.0,-100.00,North,0,1.0,9.0,27,-99.99,,,-99.99,,2013-03-22 05:22:00,
2013-03-22 01:32:00,46.0,14.0,-100.00,NNE,15,0.0,10.0,28,-99.99,,,-99.99,,2013-03-22 05:32:00,
2013-03-22 01:42:00,46.0,16.0,-100.00,NNE,20,0.0,1.0,30,-99.99,,,-99.99,,2013-03-22 05:42:00,
2013-03-22 01:52:00,46.0,17.0,-100.00,NNE,20,0.0,1.0,31,-99.99,,,-99.99,,2013-03-22 05:52:00,
2013-03-22 02:02:00,46.0,18.0,-100.00,NNE,25,0.0,1.0,32,-99.99,,,-99.99,,2013-03-22 06:02:00,
2013-03-22 02:13:00,45.0,17.0,-100.00,NNE,15,1.0,9.0,32,-99.99,,,-99.99,,2013-03-22 06:13:00,
2013-03-22 02:22:00,44.0,16.0,-100.00,NNE,20,14.0,57.0,33,-99.99,,,-99.99,,2013-03-22 06:22:00,
2013-03-22 02:32:00,43.0,16.0,-100.00,NNE,25,6.0,32.0,34,-99.99,,,-99.99,,2013-03-22 06:32:00,
2013-03-22 02:42:00,42.0,15.0,-100.00,NNE,20,11.0,31.0,33,-99.99,,,-99.99,,2013-03-22 06:42:00,
2013-03-22 02:52:00,42.0,15.0,-100.00,NNE,20,8.0,26.0,34,-99.99,,,-99.99,,2013-03-22 06:52:00,
2013-03-22 03:03:00,41.0,15.0,-100.00,NNE,30,11.0,28.0,34,-99.99,,,-99.99,,2013-03-22 07:03:00,
2013-03-22 03:12:00,41.0,15.0,-100.00,NNE,30,5.0,23.0,35,-99.99,,,-99.99,,2013-03-22 07:12:00,
2013-03-22 03:22:00,41.0,15.0,-100.00,NNE,20,4.0,29.0,35,-99.99,,,-99.99,,2013-03-22 07:22:00,
2013-03-22 03:32:00,40.0,16.0,-100.00,NNE,20,1.0,11.0,36,-99.99,,,-99.99,,2013-03-22 07:32:00,
2013-03-22 03:42:00,40.0,16.0,-100.00,NNE,30,2.0,12.0,37,-99.99,,,-99.99,,2013-03-22 07:42:00,
2013-03-22 03:52:00,40.0,16.0,-100.00,NNE,25,0.0,4.0,37,-99.99,,,-99.99,,2013-03-22 07:52:00,
2013-03-22 04:03:00,40.0,16.0,-100.00,NNE,30,1.0,4.0,37,-99.99,,,-99.99,,2013-03-22 08:03:00,
2013-03-22 04:13:00,40.0,16.0,-100.00,NNE,30,2.0,16.0,37,-99.99,,,-99.99,,2013-03-22 08:13:00,
2013-03-22 04:22:00,39.0,15.0,-100.00,NNE,20,6.0,14.0,37,-99.99,,,-99.99,,2013-03-22 08:22:00,
2013-03-22 04:32:00,39.0,15.0,-100.00,NNE,25,3.0,24.0,37,-99.99,,,-99.99,,2013-03-22 08:32:00,
2013-03-22 04:42:00,39.0,15.0,-100.00,NNE,25,4.0,19.0,37,-99.99,,,-99.99,,2013-03-22 08:42:00,
2013-03-22 04:52:00,39.0,15.0,-100.00,NNE,25,2.0,21.0,37,-99.99,,,-99.99,,2013-03-22 08:52:00,
2013-03-22 05:03:00,39.0,15.0,-100.00,NNE,25,2.0,21.0,37,-99.99,,,-99.99,,2013-03-22 09:03:00,
2013-03-22 05:12:00,39.0,17.0,-100.00,NNE,15,1.0,13.0,40,-99.99,,,-99.99,,2013-03-22 09:12:00,
2013-03-22 05:22:00,39.0,17.0,-100.00,NNE,20,4.0,14.0,40,-99.99,,,-99.99,,2013-03-22 09:22:00,
2013-03-22 05:33:00,39.0,17.0,-100.00,NNE,20,5.0,13.0,41,-99.99,,,-99.99,,2013-03-22 09:33:00,
2013-03-22 05:42:00,38.0,17.0,-100.00,NNE,20,4.0,16.0,42,-99.99,,,-99.99,,2013-03-22 09:42:00,
2013-03-22 05:53:00,39.0,18.0,-100.00,NNE,30,2.0,18.0,42,-99.99,,,-99.99,,2013-03-22 09:53:00,
2013-03-22 06:04:00,38.0,16.0,-100.00,NNE,25,6.0,20.0,40,-99.99,,,-99.99,,2013-03-22 10:04:00,
2013-03-22 06:12:00,38.0,16.0,-100.00,NNE,25,4.0,16.0,40,-99.99,,,-99.99,,2013-03-22 10:12:00,
2013-03-22 06:23:00,38.0,16.0,-100.00,NNE,25,1.0,16.0,40,-99.99,,,-99.99,,2013-03-22 10:23:00,
2013-03-22 06:33:00,38.0,16.0,-100.00,NNE,25,1.0,9.0,40,-99.99,,,-99.99,,2013-03-22 10:33:00,
2013-03-22 06:42:00,38.0,16.0,-100.00,NNE,25,1.0,16.0,39,-99.99,,,-99.99,,2013-03-22 10:42:00,
2013-03-22 06:52:00,38.0,16.0,-100.00,NNE,15,0.0,2.0,40,-99.99,,,-99.99,,2013-03-22 10:52:00,
2013-03-22 07:03:00,38.0,16.0,-100.00,NNE,30,0.0,6.0,40,-99.99,,,-99.99,,2013-03-22 11:03:00,
2013-03-22 07:12:00,38.0,16.0,-100.00,NNE,25,0.0,1.0,40,-99.99,,,-99.99,,2013-03-22 11:12:00,
2013-03-22 07:22:00,38.0,16.0,-100.00,NNE,20,0.0,1.0,40,-99.99,,,-99.99,,2013-03-22 11:22:00,
2013-03-22 07:33:00,38.0,16.0,-100.00,NNE,25,0.0,1.0,40,-99.99,,,-99.99,,2013-03-22 11:33:00,
2013-03-22 07:42:00,38.0,16.0,-100.00,NNE,20,0.0,2.0,40,-99.99,,,-99.99,,2013-03-22 11:42:00,
2013-03-22 07:52:00,38.0,16.0,-100.00,NNE,20,0.0,3.0,40,-99.99,,,-99.99,,2013-03-22 11:52:00,
2013-03-22 08:02:00,38.0,16.0,-100.00,NNE,30,0.0,1.0,40,-99.99,,,-99.99,,2013-03-22 12:02:00,
2013-03-22 08:12:00,38.0,16.0,-100.00,NNE,25,0.0,0.0,40,-99.99,,,-99.99,,2013-03-22 12:12:00,
2013-03-22 08:22:00,38.0,16.0,-100.00,NNE,25,0.0,1.0,41,-99.99,,,-99.99,,2013-03-22 12:22:00,
2013-03-22 08:32:00,37.0,15.0,-100.00,NE,35,0.0,2.0,40,-99.99,,,-99.99,,2013-03-22 12:32:00,
2013-03-22 08:42:00,37.0,15.0,-100.00,NNE,30,0.0,1.0,40,-99.99,,,-99.99,,2013-03-22 12:42:00,
2013-03-22 08:52:00,38.0,15.0,-100.00,NNE,30,0.0,0.0,40,-99.99,,,-99.99,,2013-03-22 12:52:00,
2013-03-22 09:02:00,38.0,16.0,-100.00,NE,40,0.0,1.0,41,-99.99,,,-99.99,,2013-03-22 13:02:00,
2013-03-22 09:12:00,38.0,16.0,-100.00,NNE,30,0.0,1.0,41,-99.99,,,-99.99,,2013-03-22 13:12:00,
2013-03-22 09:22:00,38.0,16.0,-100.00,NE,35,0.0,0.0,40,-99.99,,,-99.99,,2013-03-22 13:22:00,
2013-03-22 09:32:00,39.0,16.0,-100.00,NNE,25,0.0,1.0,40,-99.99,,,-99.99,,2013-03-22 13:32:00,
2013-03-22 09:42:00,39.0,17.0,-100.00,NNE,25,0.0,6.0,41,-99.99,,,-99.99,,2013-03-22 13:42:00,
2013-03-22 09:52:00,39.0,17.0,-100.00,NNE,30,0.0,0.0,41,-99.99,,,-99.99,,2013-03-22 13:52:00,
2013-03-22 10:03:00,39.0,17.0,-100.00,NNE,25,0.0,1.0,41,-99.99,,,-99.99,,2013-03-22 14:03:00,
2013-03-22 10:12:00,39.0,18.0,-100.00,NNE,25,0.0,1.0,41,-99.99,,,-99.99,,2013-03-22 14:12:00,
2013-03-22 10:22:00,40.0,18.0,-100.00,NE,35,0.0,1.0,41,-99.99,,,-99.99,,2013-03-22 14:22:00,
2013-03-22 10:32:00,40.0,18.0,-100.00,NNE,20,0.0,1.0,41,-99.99,,,-99.99,,2013-03-22 14:32:00,
2013-03-22 10:43:00,40.0,18.0,-100.00,NE,40,0.0,1.0,41,-99.99,,,-99.99,,2013-03-22 14:43:00,
2013-03-22 10:52:00,40.0,19.0,-100.00,NNE,30,0.0,1.0,41,-99.99,,,-99.99,,2013-03-22 14:52:00,
2013-03-22 11:03:00,41.0,19.0,-100.00,NNE,30,0.0,1.0,41,-99.99,,,-99.99,,2013-03-22 15:03:00,
2013-03-22 11:12:00,42.0,20.0,-100.00,NNE,30,0.0,1.0,41,-99.99,,,-99.99,,2013-03-22 15:12:00,
2013-03-22 11:22:00,42.0,20.0,-100.00,NNE,30,0.0,1.0,40,-99.99,,,-99.99,,2013-03-22 15:22:00,
2013-03-22 11:33:00,42.0,20.0,-100.00,North,0,0.0,1.0,41,-99.99,,,-99.99,,2013-03-22 15:33:00,
2013-03-22 11:43:00,43.0,20.0,-100.00,NNE,15,0.0,1.0,40,-99.99,,,-99.99,,2013-03-22 15:43:00,
2013-03-22 11:52:00,43.0,20.0,-100.00,NNE,15,0.0,1.0,40,-99.99,,,-99.99,,2013-03-22 15:52:00,
2013-03-22 12:03:00,44.0,21.0,-100.00,North,0,2.0,9.0,40,-99.99,,,-99.99,,2013-03-22 16:03:00,
2013-03-22 12:13:00,45.0,22.0,-100.00,ENE,70,4.0,8.0,39,-99.99,,,-99.99,,2013-03-22 16:13:00,
2013-03-22 12:23:00,47.0,22.0,-100.00,East,95,8.0,12.0,38,-99.99,,,-99.99,,2013-03-22 16:23:00,
2013-03-22 12:32:00,48.0,23.0,-100.00,SE,130,3.0,9.0,37,-99.99,,,-99.99,,2013-03-22 16:32:00,
2013-03-22 12:42:00,47.0,23.0,-100.00,ESE,110,0.0,14.0,38,-99.99,,,-99.99,,2013-03-22 16:42:00,
2013-03-22 12:52:00,47.0,24.0,-100.00,East,90,1.0,11.0,39,-99.99,,,-99.99,,2013-03-22 16:52:00,
2013-03-22 13:03:00,46.0,23.0,-100.00,ESE,105,0.0,2.0,40,-99.99,,,-99.99,,2013-03-22 17:03:00,
2013-03-22 13:12:00,46.0,24.0,-100.00,ENE,70,0.0,2.0,42,-99.99,,,-99.99,,2013-03-22 17:12:00,
2013-03-22 13:23:00,46.0,24.0,-100.00,ENE,70,1.0,6.0,42,-99.99,,,-99.99,,2013-03-22 17:23:00,
2013-03-22 13:32:00,48.0,26.0,-100.00,SE,140,1.0,6.0,41,-99.99,,,-99.99,,2013-03-22 17:32:00,
2013-03-22 13:42:00,49.0,26.0,-100.00,East,85,0.0,8.0,41,-99.99,,,-99.99,,2013-03-22 17:42:00,
2013-03-22 13:52:00,49.0,26.0,-100.00,SE,125,1.0,6.0,41,-99.99,,,-99.99,,2013-03-22 17:52:00,
2013-03-22 14:02:00,49.0,26.0,-100.00,East,85,2.0,13.0,41,-99.99,,,-99.99,,2013-03-22 18:02:00,
2013-03-22 14:12:00,49.0,27.0,-100.00,East,85,3.0,11.0,41,-99.99,,,-99.99,,2013-03-22 18:12:00,
2013-03-22 14:22:00,50.0,27.0,-100.00,East,90,5.0,9.0,41,-99.99,,,-99.99,,2013-03-22 18:22:00,
2013-03-22 14:33:00,49.0,27.0,-100.00,SE,125,2.0,8.0,42,-99.99,,,-99.99,,2013-03-22 18:33:00,
2013-03-22 14:42:00,49.0,27.0,-100.00,SSE,165,0.0,8.0,42,-99.99,,,-99.99,,2013-03-22 18:42:00,
2013-03-22 14:52:00,50.0,27.0,-100.00,SE,140,1.0,6.0,42,-99.99,,,-99.99,,2013-03-22 18:52:00,
2013-03-22 15:02:00,49.0,27.0,-100.00,SSE,150,0.0,7.0,41,-99.99,,,-99.99,,2013-03-22 19:02:00,
2013-03-22 15:12:00,49.0,27.0,-100.00,SSE,160,0.0,9.0,42,-99.99,,,-99.99,,2013-03-22 19:12:00,
2013-03-22 15:22:00,49.0,28.0,-100.00,SSE,155,0.0,6.0,44,-99.99,,,-99.99,,2013-03-22 19:22:00,
2013-03-22 15:32:00,50.0,28.0,-100.00,East,100,0.0,7.0,43,-99.99,,,-99.99,,2013-03-22 19:32:00,
2013-03-22 15:43:00,50.0,28.0,-100.00,ESE,120,1.0,10.0,42,-99.99,,,-99.99,,2013-03-22 19:43:00,
2013-03-22 15:52:00,50.0,28.0,-100.00,East,100,0.0,8.0,43,-99.99,,,-99.99,,2013-03-22 19:52:00,
2013-03-22 16:02:00,50.0,29.0,-100.00,SSE,150,4.0,11.0,43,-99.99,,,-99.99,,2013-03-22 20:02:00,
2013-03-22 16:13:00,51.0,28.0,-100.00,SE,140,0.0,9.0,42,-99.99,,,-99.99,,2013-03-22 20:13:00,
2013-03-22 16:22:00,51.0,29.0,-100.00,SE,145,1.0,6.0,43,-99.99,,,-99.99,,2013-03-22 20:22:00,
2013-03-22 16:32:00,51.0,29.0,-100.00,SSE,160,2.0,7.0,43,-99.99,,,-99.99,,2013-03-22 20:32:00,
2013-03-22 16:43:00,51.0,28.0,-100.00,South,170,1.0,9.0,42,-99.99,,,-99.99,,2013-03-22 20:43:00,
2013-03-22 16:52:00,51.0,29.0,-100.00,SSE,155,0.0,7.0,42,-99.99,,,-99.99,,2013-03-22 20:52:00,
2013-03-22 17:03:00,50.0,29.0,-100.00,ESE,110,2.0,10.0,44,-99.99,,,-99.99,,2013-03-22 21:03:00,
2013-03-22 17:12:00,51.0,30.0,-100.00,SSE,155,1.0,9.0,45,-99.99,,,-99.99,,2013-03-22 21:12:00,
2013-03-22 17:22:00,50.0,30.0,-100.00,SE,140,0.0,5.0,46,-99.99,,,-99.99,,2013-03-22 21:22:00,
2013-03-22 17:33:00,51.0,31.0,-100.00,SSE,165,2.0,8.0,46,-99.99,,,-99.99,,2013-03-22 21:33:00,
2013-03-22 17:43:00,51.0,31.0,-100.00,SSE,165,1.0,6.0,46,-99.99,,,-99.99,,2013-03-22 21:43:00,
2013-03-22 17:53:00,51.0,31.0,-100.00,SSE,165,1.0,6.0,46,-99.99,,,-99.99,,2013-03-22 21:53:00,
2013-03-22 18:03:00,51.0,31.0,-100.00,SSE,155,1.0,6.0,46,-99.99,,,-99.99,,2013-03-22 22:03:00,
2013-03-22 18:12:00,51.0,30.0,-100.00,SE,125,1.0,6.0,45,-99.99,,,-99.99,,2013-03-22 22:12:00,
2013-03-22 18:23:00,50.0,30.0,-100.00,SE,140,0.0,6.0,46,-99.99,,,-99.99,,2013-03-22 22:23:00,
2013-03-22 18:32:00,51.0,31.0,-100.00,South,170,0.0,7.0,46,-99.99,,,-99.99,,2013-03-22 22:32:00,
2013-03-22 18:43:00,51.0,31.0,-100.00,South,170,0.0,6.0,46,-99.99,,,-99.99,,2013-03-22 22:43:00,
2013-03-22 18:52:00,51.0,31.0,-100.00,SE,145,0.0,8.0,46,-99.99,,,-99.99,,2013-03-22 22:52:00,
2013-03-22 19:02:00,51.0,31.0,-100.00,SE,125,0.0,6.0,47,-99.99,,,-99.99,,2013-03-22 23:02:00,
2013-03-22 19:12:00,51.0,31.0,-100.00,South,175,2.0,6.0,47,-99.99,,,-99.99,,2013-03-22 23:12:00,
2013-03-22 19:22:00,50.0,31.0,-100.00,SSE,155,1.0,6.0,47,-99.99,,,-99.99,,2013-03-22 23:22:00,
2013-03-22 19:32:00,50.0,32.0,-100.00,South,170,0.0,4.0,49,-99.99,,,-99.99,,2013-03-22 23:32:00,
2013-03-22 19:42:00,50.0,32.0,-100.00,SSW,205,0.0,4.0,49,-99.99,,,-99.99,,2013-03-22 23:42:00,
2013-03-22 19:52:00,50.0,32.0,-100.00,SSW,200,0.0,4.0,50,-99.99,,,-99.99,,2013-03-22 23:52:00,
2013-03-22 20:02:00,50.0,32.0,-100.00,South,190,1.0,4.0,50,-99.99,,,-99.99,,2013-03-23 00:02:00,
2013-03-22 20:12:00,50.0,33.0,-100.00,SW,220,0.0,5.0,51,-99.99,,,-99.99,,2013-03-23 00:12:00,
2013-03-22 20:23:00,50.0,33.0,-100.00,South,170,1.0,5.0,51,-99.99,,,-99.99,,2013-03-23 00:23:00,
2013-03-22 20:33:00,50.0,33.0,-100.00,South,170,1.0,5.0,51,-99.99,,,-99.99,,2013-03-23 00:33:00,
2013-03-22 20:42:00,50.0,33.0,-100.00,SSW,200,1.0,4.0,51,-99.99,,,-99.99,,2013-03-23 00:42:00,
2013-03-22 20:52:00,50.0,33.0,-100.00,SSW,205,0.0,5.0,52,-99.99,,,-99.99,,2013-03-23 00:52:00,
2013-03-22 21:03:00,50.0,33.0,-100.00,South,175,1.0,5.0,51,-99.99,,,-99.99,,2013-03-23 01:03:00,
2013-03-22 21:12:00,50.0,33.0,-100.00,SW,230,1.0,5.0,52,-99.99,,,-99.99,,2013-03-23 01:12:00,
2013-03-22 21:22:00,50.0,33.0,-100.00,SW,225,0.0,4.0,52,-99.99,,,-99.99,,2013-03-23 01:22:00,
2013-03-22 21:32:00,50.0,34.0,-100.00,SW,225,0.0,4.0,53,-99.99,,,-99.99,,2013-03-23 01:32:00,
2013-03-22 21:42:00,50.0,34.0,-100.00,SW,230,2.0,5.0,53,-99.99,,,-99.99,,2013-03-23 01:42:00,
2013-03-22 21:52:00,50.0,34.0,-100.00,WSW,240,1.0,5.0,53,-99.99,,,-99.99,,2013-03-23 01:52:00,
2013-03-22 22:02:00,51.0,34.0,-100.00,WSW,250,0.0,4.0,52,-99.99,,,-99.99,,2013-03-23 02:02:00,
2013-03-22 22:12:00,51.0,34.0,-100.00,SW,225,1.0,4.0,52,-99.99,,,-99.99,,2013-03-23 02:12:00,
2013-03-22 22:22:00,51.0,33.0,-100.00,SW,225,2.0,5.0,51,-99.99,,,-99.99,,2013-03-23 02:22:00,
2013-03-22 22:32:00,51.0,34.0,-100.00,SSW,205,0.0,4.0,52,-99.99,,,-99.99,,2013-03-23 02:32:00,
2013-03-22 22:42:00,51.0,34.0,-100.00,SW,215,1.0,4.0,52,-99.99,,,-99.99,,2013-03-23 02:42:00,
2013-03-22 22:52:00,51.0,34.0,-100.00,SW,220,3.0,5.0,52,-99.99,,,-99.99,,2013-03-23 02:52:00,
2013-03-22 23:03:00,51.0,34.0,-100.00,SSW,210,2.0,4.0,52,-99.99,,,-99.99,,2013-03-23 03:03:00,
2013-03-22 23:12:00,51.0,35.0,-100.00,South,190,1.0,4.0,54,-99.99,,,-99.99,,2013-03-23 03:12:00,
2013-03-22 23:23:00,51.0,35.0,-100.00,SSW,210,1.0,4.0,54,-99.99,,,-99.99,,2013-03-23 03:23:00,
2013-03-22 23:33:00,51.0,35.0,-100.00,SW,215,3.0,4.0,54,-99.99,,,-99.99,,2013-03-23 03:33:00,
2013-03-22 23:43:00,51.0,35.0,-100.00,SW,220,2.0,5.0,55,-99.99,,,-99.99,,2013-03-23 03:43:00,
2013-03-22 23:53:00,51.0,35.0,-100.00,SW,225,1.0,4.0,55,-99.99,,,-99.99,,2013-03-23 03:53:00,